Location: Bothell
(47.7630°N, 122.2040°W)
Time: 10:21:50
(UTC-07:00)

Amateur Radio Satellites - All Passes

Search period start: 29 March 2015 09:51
Search period end: 30 March 2015 09:51
Location: Bothell, 47.7630°N, 122.2040°W

Satellite Date Start Highest point End Downlink Frequencies (MHz)
Time Altitude Azimuth
CUSAT 1 29 Mar 09:54:27 09:56:43 13° 267° (W) 09:59:00 437.405
CUTE 1.7 + AOD 2 29 Mar 09:57:04 10:01:23 64° 101° (E) 10:05:39 437.475
DELFI C3 29 Mar 10:03:29 10:06:14 18° 90° (E) 10:09:05 145.870
POPSAT HIP 1 29 Mar 10:11:50 10:14:54 20° 64° (ENE) 10:18:05 437.405
BUGSAT 1 29 Mar 10:12:32 10:14:56 16° 62° (ENE) 10:17:28 437.445
UKube-1 29 Mar 10:18:45 10:20:35 13° 87° (E) 10:22:37 .
NANOSAT C BR1 29 Mar 10:22:05 10:25:31 25° 66° (ENE) 10:29:01 145.865
AAUSAT CUBESAT 2 29 Mar 10:22:07 10:26:23 72° 102° (ESE) 10:30:36 437.432
UNISAT 6 29 Mar 10:23:15 10:27:20 46° 70° (ENE) 10:31:32 437.425
POLYITAN 1 29 Mar 10:26:03 10:29:37 28° 67° (ENE) 10:33:15 437.675
SEEDS 29 Mar 10:26:33 10:30:51 76° 285° (WNW) 10:35:08 437.485
HUMSAT D 29 Mar 10:27:41 10:29:05 12° 86° (E) 10:30:41 437.325/437.525
DX 1 29 Mar 10:28:04 10:30:49 17° 90° (E) 10:33:43 434.975-435.025
TIGRISAT 29 Mar 10:33:28 10:37:38 57° 72° (ENE) 10:41:54 435.000
BRITE-PL 29 Mar 10:37:04 10:40:44 30° 292° (WNW) 10:44:28 437.365/2234.400
VERMONT LUNAR 29 Mar 10:43:18 10:44:32 12° 203° (SSW) 10:45:43 437.305
BEESAT 2 29 Mar 10:44:03 10:47:42 31° 118° (ESE) 10:51:26 435.950
Oscar 11 29 Mar 10:46:32 10:50:53 62° 101° (E) 10:55:13 145.826/435.025
COMPASS 1 29 Mar 10:49:17 10:53:27 53° 288° (WNW) 10:57:36 437.405
CINEMA 3 29 Mar 10:52:58 10:57:20 81° 285° (WNW) 11:01:53 145.822/145.860
FUNcube-1 29 Mar 10:56:51 11:01:00 43° 98° (E) 11:05:16 145.935
UWE-3 29 Mar 11:00:45 11:05:06 58° 101° (E) 11:09:32 435.000/436.395/437.385
QB50P1 29 Mar 11:02:41 11:06:51 63° 73° (ENE) 11:11:02 145.935-145.965
ANTELSAT 29 Mar 11:03:39 11:07:54 69° 258° (WSW) 11:12:15 437.575/2403.000
DUCHIFAT 1 29 Mar 11:04:35 11:08:46 65° 73° (ENE) 11:12:57 145.980
CUBEBUG 2 29 Mar 11:05:33 11:09:57 78° 101° (E) 11:14:29 437.445
VELOX 1 29 Mar 11:07:21 11:10:30 19° 91° (E) 11:13:45 145.980
ZACube-1 29 Mar 11:09:36 11:13:55 59° 101° (E) 11:18:20 437.345
AISAT 29 Mar 11:11:49 11:15:13 22° 92° (E) 11:18:42 437.250
DOVE 4 29 Mar 11:13:21 11:17:06 29° 292° (WNW) 11:20:55 437.250
50 SAT 29 Mar 11:13:42 11:16:53 22° 93° (E) 11:20:07 437.505
QB50P2 29 Mar 11:17:25 11:21:39 89° 253° (WSW) 11:25:55 145.880/145.840
HO-68 29 Mar 11:19:28 11:26:15 45° 297° (WNW) 11:32:58 435.675
CANX-2 29 Mar 11:19:50 11:23:00 20° 296° (WNW) 11:26:04 2200.000
BEESAT 3 29 Mar 11:20:42 11:24:49 81° 124° (SE) 11:28:59 437.485
PHONESAT 2.4 29 Mar 11:22:26 11:24:23 14° 201° (SSW) 11:26:18 2401.200-2431.200
GOMX 1 29 Mar 11:25:00 11:27:49 17° 297° (WNW) 11:30:34 467.674
CUTE 1.7 + AOD 2 29 Mar 11:34:09 11:36:52 16° 298° (WNW) 11:39:28 437.475
DELFI C3 29 Mar 11:37:44 11:41:43 47° 289° (WNW) 11:45:39 145.870
ESTCUBE 1 29 Mar 11:40:57 11:44:33 23° 92° (E) 11:48:12 437.505/2401.250
BUGSAT 1 29 Mar 11:45:54 11:50:02 62° 259° (W) 11:54:08 437.445
POPSAT HIP 1 29 Mar 11:46:29 11:50:33 45° 261° (W) 11:54:38 437.405
UKube-1 29 Mar 11:53:01 11:57:21 74° 286° (WNW) 12:01:39 .
AIST 2 29 Mar 11:55:02 11:59:13 57° 123° (ESE) 12:03:28 435.215
NANOSAT C BR1 29 Mar 11:57:21 12:01:15 35° 263° (W) 12:05:09 145.865
AAUSAT CUBESAT 2 29 Mar 11:59:10 12:01:32 14° 299° (WNW) 12:03:45 437.432
HUMSAT D 29 Mar 12:01:13 12:05:28 79° 285° (WNW) 12:09:45 437.325/437.525
UNISAT 6 29 Mar 12:01:17 12:04:27 19° 270° (W) 12:07:33 437.425
POLYITAN 1 29 Mar 12:01:42 12:05:30 31° 264° (W) 12:09:17 437.675
DX 1 29 Mar 12:03:13 12:07:29 55° 289° (WNW) 12:11:43 434.975-435.025
SEEDS 29 Mar 12:05:20 12:05:58 10° 302° (WNW) 12:06:24 437.485
TIGRISAT 29 Mar 12:12:09 12:14:51 16° 272° (W) 12:17:26 435.000
YUBILEINY 29 Mar 12:18:47 12:22:30 14° 72° (ENE) 12:26:48 435.215
Oscar 19 29 Mar 12:21:38 12:25:17 21° 60° (ENE) 12:29:04 437.125/150
BEESAT 2 29 Mar 12:21:56 12:25:48 36° 317° (NW) 12:29:42 435.950
Oscar 11 29 Mar 12:23:47 12:26:39 17° 298° (WNW) 12:29:24 145.826/435.025
CINEMA 3 29 Mar 12:32:36 12:33:57 11° 301° (WNW) 12:35:09 145.822/145.860
FUNcube-1 29 Mar 12:33:41 12:37:10 23° 295° (WNW) 12:40:36 145.935
UWE-3 29 Mar 12:38:16 12:41:17 18° 297° (WNW) 12:44:15 435.000/436.395/437.385
QB50P1 29 Mar 12:40:53 12:43:13 14° 272° (W) 12:45:24 145.935-145.965
TISAT 1 29 Mar 12:42:39 12:45:45 20° 92° (E) 12:48:56 437.305
DUCHIFAT 1 29 Mar 12:42:52 12:45:07 14° 272° (W) 12:47:10 145.980
CUBEBUG 1 29 Mar 12:43:06 12:47:29 85° 104° (ESE) 12:51:48 437.445
VELOX 1 29 Mar 12:43:08 12:47:24 49° 290° (WNW) 12:51:38 145.980
CUBEBUG 2 29 Mar 12:43:47 12:46:11 14° 299° (WNW) 12:48:28 437.445
ZACube-1 29 Mar 12:46:58 12:49:57 18° 297° (WNW) 12:52:51 437.345
AISAT 29 Mar 12:47:52 12:52:04 43° 291° (WNW) 12:56:13 437.250
50 SAT 29 Mar 12:48:11 12:51:55 36° 291° (WNW) 12:55:38 437.505
SPROUT 29 Mar 12:52:30 12:56:17 30° 95° (E) 13:00:06 437.525
BEESAT 3 29 Mar 13:00:19 13:03:24 19° 327° (NNW) 13:06:27 437.485
AO-7 29 Mar 13:01:39 13:04:01 12° 31° (NNE) 13:06:43 29.400- 29.500
HO-68 29 Mar 13:09:44 13:12:21 12° 319° (NW) 13:14:40 435.675
ESTCUBE 1 29 Mar 13:17:20 13:21:38 42° 290° (WNW) 13:25:52 437.505/2401.250
ITAMSAT 1 29 Mar 13:26:26 13:30:41 26° 62° (ENE) 13:35:01 435.822/435.867
SWISSCUBE 29 Mar 13:29:32 13:31:34 13° 86° (E) 13:33:50 437.505
UKube-1 29 Mar 13:32:06 13:32:47 10° 304° (NW) 13:33:16 .
BEESAT 29 Mar 13:32:32 13:34:31 13° 86° (E) 13:36:44 436.000
AIST 2 29 Mar 13:34:32 13:38:08 25° 323° (NW) 13:41:44 435.215
O/OREOS (USA 219) 29 Mar 13:36:55 13:41:15 41° 57° (ENE) 13:45:34 437.305
HUMSAT D 29 Mar 13:39:44 13:40:35 10° 302° (WNW) 13:41:15 437.325/437.525
Oscar 19 29 Mar 13:59:07 14:04:12 66° 258° (WSW) 14:09:20 437.125/150
BEESAT 2 29 Mar 14:03:50 14:05:09 11° 339° (NNW) 14:06:23 435.950
JAS-2 29 Mar 14:04:30 14:07:51 14° 44° (NE) 14:11:36 435.910
YUBILEINY 29 Mar 14:09:04 14:17:42 65° 93° (E) 14:26:26 435.215
Gurwin Techsat 1B 29 Mar 14:14:42 14:19:50 52° 69° (ENE) 14:25:01 435.225
ITUPSAT 1 29 Mar 14:17:47 14:22:05 32° 95° (E) 14:26:25 437.325
TISAT 1 29 Mar 14:17:47 14:21:47 42° 290° (WNW) 14:25:45 437.305
CUBEBUG 1 29 Mar 14:21:13 14:23:16 13° 301° (WNW) 14:25:09 437.445
SPROUT 29 Mar 14:28:36 14:32:22 30° 293° (WNW) 14:36:04 437.525
AO-7 29 Mar 14:47:16 14:54:33 37° 55° (NE) 15:01:57 29.400- 29.500
HORYU 2 29 Mar 14:53:18 14:57:05 28° 65° (ENE) 15:00:55 437.375
ITAMSAT 1 29 Mar 15:04:52 15:09:57 50° 261° (W) 15:15:03 435.822/435.867
SWISSCUBE 29 Mar 15:05:21 15:10:11 84° 288° (WNW) 15:14:58 437.505
BEESAT 29 Mar 15:08:17 15:13:08 85° 285° (WNW) 15:17:55 436.000
AIST 1 29 Mar 15:09:30 15:13:31 36° 73° (ENE) 15:17:31
KKS-1 29 Mar 15:15:06 15:18:44 25° 93° (E) 15:22:26 437.445
O/OREOS (USA 219) 29 Mar 15:16:44 15:20:30 25° 256° (WSW) 15:24:09 437.305
PCSat 29 Mar 15:21:12 15:26:28 55° 118° (ESE) 15:31:47 145.827
JAS-2 29 Mar 15:44:26 15:51:11 51° 66° (ENE) 15:58:36 435.910
STARS 29 Mar 15:46:35 15:50:34 33° 96° (E) 15:54:34 437.465
ITUPSAT 1 29 Mar 15:55:39 16:00:01 34° 294° (WNW) 16:04:17 437.325
Gurwin Techsat 1B 29 Mar 15:55:46 16:00:09 25° 268° (W) 16:04:27 435.225
YUBILEINY 29 Mar 16:07:19 16:15:14 34° 296° (WNW) 16:23:03 435.215
HORYU 2 29 Mar 16:29:34 16:33:39 35° 263° (W) 16:37:45 437.375
AO-7 29 Mar 16:38:46 16:47:01 64° 256° (WSW) 16:55:16 29.400- 29.500
SWISSCUBE 29 Mar 16:45:00 16:47:22 13° 303° (WNW) 16:49:34 437.505
AIST 1 29 Mar 16:47:35 16:51:01 23° 272° (W) 16:54:20
BEESAT 29 Mar 16:47:54 16:50:19 14° 303° (WNW) 16:52:33 436.000
KKS-1 29 Mar 16:51:23 16:55:32 39° 291° (WNW) 16:59:39 437.445
MOZHAYETS 4 29 Mar 16:51:36 16:54:38 17° 88° (E) 16:57:48
PCSat 29 Mar 17:05:20 17:10:12 32° 318° (NW) 17:15:03 145.827
BEESAT 2 29 Mar 17:22:52 17:25:11 14° 27° (NNE) 17:27:34 435.950
STARS 29 Mar 17:23:09 17:27:00 29° 294° (WNW) 17:30:46 437.465
CUTE-I 29 Mar 17:27:52 17:32:23 29° 63° (ENE) 17:37:00 437.470
Cubesat XI-IV 29 Mar 17:28:05 17:32:38 30° 63° (ENE) 17:37:17 437.490
JAS-2 29 Mar 17:29:50 17:36:25 40° 267° (W) 17:43:32 435.910
AUBIESAT-1 29 Mar 17:39:59 17:42:45 16° 92° (E) 17:45:42 437.475
BEESAT 3 29 Mar 17:59:13 18:02:38 24° 37° (NE) 18:06:03 437.485
M-CUBED/EXP-1 PRIME 29 Mar 18:03:41 18:07:51 28° 99° (E) 18:12:00 437.505
HO-68 29 Mar 18:21:44 18:24:15 12° 42° (NE) 18:27:06 435.675
MOZHAYETS 4 29 Mar 18:27:43 18:32:20 60° 287° (WNW) 18:36:54
GONETS M04 29 Mar 18:29:47 18:35:46 22° 78° (ENE) 18:42:08
AIST 2 29 Mar 18:35:47 18:39:04 21° 34° (NNE) 18:42:22 435.215
AO-7 29 Mar 18:37:46 18:41:46 13° 279° (W) 18:45:10 29.400- 29.500
CUBESAT XI-V 29 Mar 18:39:18 18:42:24 18° 89° (E) 18:45:38 437.345
RS-15 29 Mar 18:52:13 19:01:43 38° 109° (ESE) 19:11:35 29.354- 29.394
PCSat 29 Mar 18:53:17 18:55:25 12° 343° (NNW) 18:57:28 145.827
BEESAT 2 29 Mar 19:00:04 19:04:12 60° 48° (NE) 19:08:16 435.950
CUTE-I 29 Mar 19:07:08 19:12:18 47° 261° (W) 19:17:29 437.470
Cubesat XI-IV 29 Mar 19:07:25 19:12:35 46° 261° (W) 19:17:45 437.490
AUBIESAT-1 29 Mar 19:13:19 19:18:10 78° 291° (WNW) 19:22:56 437.475
PRISM 29 Mar 19:20:32 19:24:18 32° 96° (E) 19:28:04 437.425
GOMX 1 29 Mar 19:22:55 19:24:19 12° 60° (ENE) 19:25:53 467.674
STRAND 1 29 Mar 19:32:46 19:37:17 32° 95° (E) 19:41:51 437.568
SO-50 29 Mar 19:34:03 19:38:35 55° 122° (ESE) 19:43:19 436.795
BEESAT 3 29 Mar 19:36:56 19:40:59 55° 237° (WSW) 19:44:58 437.485
M-CUBED/EXP-1 PRIME 29 Mar 19:38:14 19:42:51 44° 297° (WNW) 19:47:24 437.505
SEEDS 29 Mar 19:48:26 19:50:42 15° 61° (ENE) 19:53:06 437.485
HO-68 29 Mar 20:03:40 20:10:24 47° 63° (ENE) 20:17:13 435.675
COMPASS 1 29 Mar 20:09:35 20:12:31 19° 63° (ENE) 20:15:33 437.405
BRITE-PL 29 Mar 20:12:40 20:17:08 50° 72° (ENE) 20:21:20 437.365/2234.400
Oscar 11 29 Mar 20:13:05 20:13:17 10° 57° (ENE) 20:13:42 145.826/435.025
AIST 2 29 Mar 20:13:53 20:18:10 76° 235° (SW) 20:22:22 435.215
CUBESAT XI-V 29 Mar 20:15:43 20:20:18 57° 288° (WNW) 20:24:49 437.345
GONETS M04 29 Mar 20:22:51 20:31:34 89° 279° (W) 20:40:24
CINEMA 3 29 Mar 20:23:15 20:25:47 16° 62° (ENE) 20:28:25 145.822/145.860
CUBEBUG 2 29 Mar 20:33:54 20:35:25 12° 59° (ENE) 20:37:07 437.445
BEESAT 2 29 Mar 20:39:07 20:41:59 18° 247° (WSW) 20:44:42 435.950
CANX-2 29 Mar 20:39:19 20:43:27 55° 73° (ENE) 20:47:40 2200.000
PCSat 29 Mar 20:40:47 20:41:26 10° 9° (N) 20:42:08 145.827
DOVE 4 29 Mar 20:44:45 20:48:51 46° 71° (ENE) 20:52:52 437.250
AUBIESAT-1 29 Mar 20:49:39 20:52:16 14° 309° (NW) 20:54:44 437.475
CUTE 1.7 + AOD 2 29 Mar 20:53:08 20:57:20 70° 74° (ENE) 21:01:36 437.475
DELFI C3 29 Mar 20:54:53 20:57:42 19° 64° (ENE) 21:00:37 145.870
PRISM 29 Mar 20:56:08 20:59:43 27° 294° (WNW) 21:03:14 437.425
GOMX 1 29 Mar 20:57:31 21:01:58 89° 256° (WSW) 21:06:13 467.674
RS-15 29 Mar 21:02:30 21:13:24 73° 314° (NW) 21:24:39 29.354- 29.394
STRAND 1 29 Mar 21:11:51 21:16:36 39° 294° (WNW) 21:21:16 437.568
SO-50 29 Mar 21:15:14 21:19:26 30° 323° (NW) 21:23:43 436.795
AAUSAT CUBESAT 2 29 Mar 21:16:10 21:20:20 75° 75° (ENE) 21:24:33 437.432
UKube-1 29 Mar 21:16:40 21:19:37 19° 62° (ENE) 21:22:41 .
SEEDS 29 Mar 21:21:49 21:26:02 70° 258° (WSW) 21:30:17 437.485
HUMSAT D 29 Mar 21:23:12 21:25:13 14° 61° (ENE) 21:27:23 437.325/437.525
CUSAT 1 29 Mar 21:24:59 21:27:38 49° 99° (E) 21:30:11 437.405
DX 1 29 Mar 21:26:49 21:30:16 24° 64° (ENE) 21:33:49 434.975-435.025
COMPASS 1 29 Mar 21:43:50 21:47:54 49° 261° (W) 21:52:02 437.405
Oscar 11 29 Mar 21:44:26 21:48:45 73° 74° (ENE) 21:53:06 145.826/435.025
HO-68 29 Mar 21:51:30 21:58:15 42° 263° (W) 22:04:59 435.675
BRITE-PL 29 Mar 21:52:36 21:55:58 19° 269° (W) 21:59:04 437.365/2234.400
FUNcube-1 29 Mar 21:56:09 22:00:09 50° 71° (ENE) 22:04:13 145.935
CINEMA 3 29 Mar 21:58:31 22:02:38 57° 260° (W) 22:06:46 145.822/145.860
UWE-3 29 Mar 22:01:27 22:05:34 71° 74° (ENE) 22:09:45 435.000/436.395/437.385
50 SAT 29 Mar 22:03:26 22:06:26 22° 65° (ENE) 22:09:32 437.505
CUBEBUG 2 29 Mar 22:07:25 22:11:34 83° 256° (WSW) 22:15:46 437.445
VELOX 1 29 Mar 22:08:14 22:11:58 28° 65° (ENE) 22:15:46 145.980
CUBEBUG 1 29 Mar 22:08:39 22:10:57 14° 60° (ENE) 22:13:24 437.445
ZACube-1 29 Mar 22:09:04 22:13:11 70° 74° (ENE) 22:17:22 437.345
AISAT 29 Mar 22:12:56 22:16:50 31° 66° (ENE) 22:20:45 437.250
CANX-2 29 Mar 22:17:03 22:19:49 16° 271° (W) 22:22:27 2200.000
DANDE 29 Mar 22:17:12 22:19:53 34° 285° (WNW) 22:22:20 436.750
PCSat 29 Mar 22:22:47 22:27:00 23° 34° (NE) 22:31:17 145.827
GONETS M04 29 Mar 22:23:06 22:29:54 24° 304° (NW) 22:36:29
DOVE 4 29 Mar 22:23:52 22:26:57 18° 269° (W) 22:29:51 437.250
DELFI C3 29 Mar 22:28:37 22:32:34 48° 261° (W) 22:36:34 145.870
CUTE 1.7 + AOD 2 29 Mar 22:31:45 22:33:51 13° 274° (W) 22:35:44 437.475
ESTCUBE 1 29 Mar 22:43:47 22:47:50 33° 67° (ENE) 22:51:56 437.505/2401.250
UKube-1 29 Mar 22:51:10 22:55:26 55° 259° (W) 22:59:42 .
ANTELSAT 29 Mar 22:52:43 22:56:03 20° 91° (E) 22:59:33 437.575/2403.000
AAUSAT CUBESAT 2 29 Mar 22:54:54 22:56:35 12° 274° (W) 22:58:04 437.432
HUMSAT D 29 Mar 22:56:24 23:00:30 71° 258° (WSW) 23:04:39 437.325/437.525
SO-50 29 Mar 22:59:26 23:01:33 13° 347° (NNW) 23:03:39 436.795
QB50P2 29 Mar 23:01:27 23:02:59 12° 87° (E) 23:04:45 145.880/145.840
DX 1 29 Mar 23:02:13 23:06:21 41° 262° (W) 23:10:30 434.975-435.025
ISS 29 Mar 23:12:57 23:15:41 25° 142° (SE) 23:18:27 145.825
RS-15 29 Mar 23:18:04 23:28:02 36° 344° (NNW) 23:38:17 29.354- 29.394
Oscar 11 29 Mar 23:23:30 23:25:32 13° 274° (W) 23:27:23 145.826/435.025
BUGSAT 1 29 Mar 23:26:11 23:28:22 14° 89° (E) 23:30:42 437.445
POPSAT HIP 1 29 Mar 23:28:45 23:32:03 22° 92° (E) 23:35:25 437.405
FUNcube-1 29 Mar 23:34:04 23:36:52 17° 271° (W) 23:39:32 145.935
50 SAT 29 Mar 23:37:33 23:41:11 36° 263° (W) 23:44:51 437.505
TISAT 1 29 Mar 23:38:16 23:41:41 25° 65° (ENE) 23:45:10 437.305
NANOSAT C BR1 29 Mar 23:38:55 23:42:33 28° 94° (E) 23:46:14 145.865
UWE-3 29 Mar 23:41:00 23:42:44 12° 274° (W) 23:44:17 435.000/436.395/437.385
CUBEBUG 1 29 Mar 23:42:24 23:46:49 77° 257° (WSW) 23:51:13 437.445
POLYITAN 1 29 Mar 23:43:30 23:47:19 32° 96° (E) 23:51:09 437.675
VELOX 1 29 Mar 23:44:20 23:48:27 36° 263° (W) 23:52:33 145.980
UNISAT 6 29 Mar 23:47:59 23:52:32 67° 102° (ESE) 23:57:11 437.425
ZACube-1 29 Mar 23:48:19 23:50:10 12° 274° (W) 23:51:49 437.345
AISAT 29 Mar 23:49:26 23:53:25 31° 264° (W) 23:57:22 437.250
SPROUT 29 Mar 23:49:56 23:53:52 36° 69° (ENE) 23:57:50 437.525
TIGRISAT 29 Mar 23:57:59 00:02:33 81° 103° (ESE) 00:07:12 435.000
PCSat 30 Mar 00:05:43 00:11:12 90° 290° (WNW) 00:16:38 145.827
YUBILEINY 30 Mar 00:15:05 00:23:10 39° 66° (ENE) 00:31:17 435.215
QB50P1 30 Mar 00:20:13 00:24:27 75° 102° (ESE) 00:28:41 145.935-145.965
ESTCUBE 1 30 Mar 00:20:40 00:24:44 31° 265° (W) 00:28:46 437.505/2401.250
DUCHIFAT 1 30 Mar 00:21:46 00:26:00 76° 103° (ESE) 00:30:13 145.980
ANTELSAT 30 Mar 00:28:42 00:33:10 51° 289° (WNW) 00:37:40 437.575/2403.000
QB50P2 30 Mar 00:35:15 00:39:30 75° 286° (WNW) 00:43:45 145.880/145.840
SWISSCUBE 30 Mar 00:38:48 00:42:31 23° 63° (ENE) 00:46:21 437.505
BEESAT 30 Mar 00:41:42 00:45:23 23° 62° (ENE) 00:49:11 436.000
SO-50 30 Mar 00:42:15 00:44:12 12° 12° (NNE) 00:46:12 436.795
ISS 30 Mar 00:48:38 00:51:54 70° 341° (NNW) 00:55:08 145.825
BUGSAT 1 30 Mar 01:00:19 01:04:17 56° 288° (WNW) 01:08:13 437.445
POPSAT HIP 1 30 Mar 01:04:09 01:08:07 39° 291° (WNW) 01:12:03 437.405
TISAT 1 30 Mar 01:13:26 01:17:21 36° 263° (W) 01:21:16 437.305
NANOSAT C BR1 30 Mar 01:14:41 01:18:27 31° 293° (WNW) 01:22:10 145.865
POLYITAN 1 30 Mar 01:19:32 01:23:12 28° 293° (WNW) 01:26:49 437.675
UNISAT 6 30 Mar 01:25:52 01:28:55 17° 298° (WNW) 01:31:52 437.425
SPROUT 30 Mar 01:26:31 01:30:04 25° 267° (W) 01:33:35 437.525
ITUPSAT 1 30 Mar 01:27:44 01:32:26 55° 70° (ENE) 01:37:11 437.325
RS-15 30 Mar 01:34:03 01:44:11 37° 18° (NNE) 01:54:47 29.354- 29.394
TIGRISAT 30 Mar 01:36:13 01:38:47 15° 300° (WNW) 01:41:15 435.000
PCSat 30 Mar 01:50:45 01:53:56 15° 255° (WSW) 01:56:54 145.827
QB50P1 30 Mar 01:57:36 01:59:50 14° 300° (WNW) 02:01:55 145.935-145.965
DUCHIFAT 1 30 Mar 01:59:10 02:01:20 14° 300° (WNW) 02:03:20 145.980
Oscar 19 30 Mar 02:07:19 02:12:00 34° 95° (E) 02:16:43 437.125/150
YUBILEINY 30 Mar 02:11:51 02:20:26 57° 269° (W) 02:28:54 435.215
SWISSCUBE 30 Mar 02:15:25 02:20:07 51° 260° (W) 02:24:49 437.505
KKS-1 30 Mar 02:16:30 02:20:30 34° 67° (ENE) 02:24:33 437.445
BEESAT 30 Mar 02:18:17 02:22:58 51° 260° (W) 02:27:40 436.000
SO-50 30 Mar 02:22:10 02:26:23 27° 35° (NE) 02:30:39 436.795
ISS 30 Mar 02:25:30 02:28:35 39° 360° (N) 02:31:40 145.825
Gurwin Techsat 1B 30 Mar 02:28:39 02:31:41 16° 86° (E) 02:34:56 435.225
STARS 30 Mar 02:46:46 02:50:55 44° 70° (ENE) 02:55:07 437.465
ITUPSAT 1 30 Mar 03:07:07 03:10:43 20° 270° (W) 03:14:14 437.325
ITAMSAT 1 30 Mar 03:14:08 03:19:06 44° 98° (E) 03:24:03 435.822/435.867
AIST 1 30 Mar 03:43:30 03:46:33 19° 87° (E) 03:49:44
Oscar 19 30 Mar 03:46:40 03:51:24 37° 294° (WNW) 03:56:06 437.125/150
RS-15 30 Mar 03:47:23 03:58:48 74° 47° (NE) 04:10:45 29.354- 29.394
O/OREOS (USA 219) 30 Mar 03:53:10 03:56:50 24° 104° (ESE) 04:00:36 437.305
KKS-1 30 Mar 03:53:22 03:57:13 28° 266° (W) 04:01:02 437.445
MOZHAYETS 4 30 Mar 03:56:45 04:00:28 25° 65° (ENE) 04:04:17
ISS 30 Mar 04:02:03 04:05:18 68° 19° (NNE) 04:08:31 145.825
SO-50 30 Mar 04:02:26 04:07:23 67° 235° (SW) 04:12:16 436.795
Gurwin Techsat 1B 30 Mar 04:07:04 04:12:25 81° 287° (WNW) 04:17:45 435.225
YUBILEINY 30 Mar 04:12:32 04:15:25 11° 290° (WNW) 04:17:39 435.215
HORYU 2 30 Mar 04:17:09 04:21:16 34° 96° (E) 04:25:24 437.375
STARS 30 Mar 04:24:15 04:27:39 21° 268° (W) 04:30:57 437.465
AUBIESAT-1 30 Mar 04:30:40 04:34:19 30° 59° (ENE) 04:38:16 437.475
GONETS M04 30 Mar 04:33:51 04:38:03 14° 46° (NE) 04:42:44
JAS-2 30 Mar 04:35:26 04:42:26 36° 91° (E) 04:49:03 435.910
AO-7 30 Mar 04:36:31 04:43:59 37° 95° (E) 04:51:33 29.400- 29.500
ITAMSAT 1 30 Mar 04:54:00 04:58:28 29° 297° (WNW) 05:02:51 435.822/435.867
M-CUBED/EXP-1 PRIME 30 Mar 04:55:16 04:59:19 55° 66° (ENE) 05:03:44 437.505
STRAND 1 30 Mar 05:16:59 05:18:32 12° 53° (NE) 05:20:19 437.568
AIST 1 30 Mar 05:19:40 05:23:56 46° 285° (WNW) 05:28:11
O/OREOS (USA 219) 30 Mar 05:31:39 05:36:03 44° 303° (WNW) 05:40:29 437.305
MOZHAYETS 4 30 Mar 05:33:05 05:37:30 43° 263° (W) 05:41:57
ISS 30 Mar 05:38:44 05:41:30 26° 218° (SW) 05:44:14 145.825
CUBESAT XI-V 30 Mar 05:45:48 05:49:42 27° 65° (ENE) 05:53:40 437.345
SO-50 30 Mar 05:46:16 05:47:08 10° 252° (WSW) 05:47:42 436.795
Gurwin Techsat 1B 30 Mar 05:48:43 05:51:40 15° 305° (NW) 05:54:25 435.225
HORYU 2 30 Mar 05:53:56 05:57:52 30° 294° (WNW) 06:01:45 437.375
RS-15 30 Mar 06:00:18 06:10:40 40° 250° (WSW) 06:21:10 29.354- 29.394
AUBIESAT-1 30 Mar 06:05:18 06:09:05 34° 260° (W) 06:13:08 437.475
PRISM 30 Mar 06:13:57 06:17:51 38° 69° (ENE) 06:21:49 437.425
JAS-2 30 Mar 06:20:11 06:27:51 58° 292° (WNW) 06:34:57 435.910
GONETS M04 30 Mar 06:28:51 06:37:31 56° 73° (ENE) 06:46:12
AO-7 30 Mar 06:29:07 06:37:15 60° 296° (WNW) 06:45:19 29.400- 29.500
M-CUBED/EXP-1 PRIME 30 Mar 06:31:48 06:34:41 18° 267° (W) 06:37:35 437.505
VERMONT LUNAR 30 Mar 06:39:50 06:42:14 18° 167° (SSE) 06:44:40 437.305
STRAND 1 30 Mar 06:51:47 06:56:52 65° 72° (ENE) 07:02:00 437.568
DANDE 30 Mar 07:08:46 07:11:12 16° 69° (ENE) 07:14:11 436.750
CUTE-I 30 Mar 07:20:30 07:25:44 54° 100° (E) 07:30:56 437.470
Cubesat XI-IV 30 Mar 07:20:57 07:26:12 55° 100° (E) 07:31:25 437.490
CUBESAT XI-V 30 Mar 07:22:32 07:27:00 40° 263° (W) 07:31:27 437.345
PHONESAT 2.4 30 Mar 07:27:20 07:29:56 19° 166° (SSE) 07:32:33 2401.200-2431.200
PRISM 30 Mar 07:50:05 07:53:29 23° 267° (W) 07:56:51 437.425
CUSAT 1 30 Mar 07:55:27 07:59:30 60° 77° (ENE) 08:04:56 437.405
JAS-2 30 Mar 08:06:50 08:11:23 16° 313° (NW) 08:15:31 435.910
BRITE-PL 30 Mar 08:16:17 08:16:43 10° 86° (E) 08:17:25 437.365/2234.400
VERMONT LUNAR 30 Mar 08:16:38 08:19:23 23° 183° (S) 08:22:07 437.305
AO-7 30 Mar 08:23:18 08:28:33 18° 319° (NW) 08:33:32 29.400- 29.500
GONETS M04 30 Mar 08:26:10 08:34:08 38° 274° (W) 08:41:56
STRAND 1 30 Mar 08:32:53 08:36:36 19° 271° (W) 08:40:09 437.568
DANDE 30 Mar 08:50:46 08:54:33 52° 261° (W) 08:59:35 436.750
GOMX 1 30 Mar 08:56:09 08:59:09 19° 91° (E) 09:02:20 467.674
CUTE-I 30 Mar 09:01:10 09:05:32 26° 298° (WNW) 09:09:47 437.470
Cubesat XI-IV 30 Mar 09:01:40 09:06:01 25° 299° (WNW) 09:10:14 437.490
SEEDS 30 Mar 09:04:02 09:06:38 16° 88° (E) 09:09:24 437.485
PHONESAT 2.4 30 Mar 09:04:45 09:07:42 25° 183° (S) 09:10:39 2401.200-2431.200
HO-68 30 Mar 09:14:58 09:21:22 34° 94° (E) 09:27:50 435.675
UNISAT 6 30 Mar 09:17:10 09:18:37 12° 58° (ENE) 09:20:14 437.425
COMPASS 1 30 Mar 09:24:34 09:27:48 21° 91° (E) 09:31:07 437.405
TIGRISAT 30 Mar 09:26:13 09:28:19 14° 59° (ENE) 09:30:35 435.000
Oscar 11 30 Mar 09:30:59 09:31:56 11° 85° (E) 09:33:08 145.826/435.025
BEESAT 3 30 Mar 09:36:01 09:37:22 12° 110° (ESE) 09:38:54 437.485
CUSAT 1 30 Mar 09:39:25 09:42:14 16° 266° (W) 09:45:18 437.405
QB50P1 30 Mar 09:43:52 09:45:06 11° 58° (ENE) 09:46:33 145.935-145.965
DUCHIFAT 1 30 Mar 09:45:07 09:46:23 11° 58° (ENE) 09:47:50 145.980
